{"data":{"norad_id":59710,"intl_designator":"2024-088C","name":"STARLINK-11092 [DTC]","alt_names":[],"object_type":"PAYLOAD","status":"ACTIVE","operator":null,"country":"US","launch_date":"2024-05-10","launch_site_code":"AFWTR","launch_vehicle":null,"mission":null,"orbit_class":"UNKNOWN","rcs_meters":null,"size_class":null,"mass_kg":null,"dimensions":null,"purposes":["comms"],"wikipedia_slug":null,"has_3d_model":false,"image_url":null,"decayed_at":null,"tle_current":{"epoch":"2026-09-21T21:15:06.564960Z","epoch_age_seconds":51553,"freshness":"FRESH","line1":"1 59710U 24088C   26264.88549265 -.00000585  00000+0  23090-7 0  9990","line2":"2 59710  53.1597  79.3475 0000871  76.5373 283.5742 15.69710636137080","mean_motion":15.69710636,"eccentricity":8.71e-5,"inclination_deg":53.1597,"raan_deg":79.3475,"arg_perigee_deg":76.5373,"mean_anomaly_deg":283.5742,"bstar":2.309e-8,"rev_number":13708,"period_min":91.736653047689,"perigee_km":359.1380626577,"apogee_km":360.31179820598,"semimajor_km":6737.8619304318,"source":"CELESTRAK","updated_at":"2026-09-22T09:00:49.057565Z"}}}